Regional Weather Roundup
Issued by NWS

Home | Current Version | Previous Version | Graphics & Text | Print | Product List | Glossary On
Versions: 1 2 3 4 5 6 7 8 9 10 11 12 13 14 15 16 17 18 19 20 21 22 23 24 25 26 27 28 29 30 31 32 33 34 35 36 37 38 39 40 41 42 43 44 45 46 47 48 49 50
000
ASUS43 KDTX 232310
RWRMI
MICHIGAN HOURLY REGIONAL WEATHER ROUNDUP
NATIONAL WEATHER SERVICE DETROIT/PONTIAC MI
700 PM EDT MON OCT 23 2017

NOTE: "FAIR" INDICATES FEW OR NO CLOUDS BELOW 12,000 FEET WITH NO
SIGNIFICANT WEATHER AND/OR OBSTRUCTION TO VISIBILITY.

MIZ047>049-052>055-059>063-066>070-074>076-081>083-240000-
SOUTHEAST LOWER MICHIGAN

CITY           SKY/WX    TMP DP  RH WIND       PRES   REMARKS
ADRIAN         LGT RAIN  60  57  89 S21G31    29.47F
ALMA           HVY RAIN  52  51  96 NW13G21   29.46F
ANN ARBOR      LGT RAIN  60  59  96 SE10      29.47F FOG
BAD AXE        RAIN      62  59  92 SE12G17   29.51F
CARO           LGT RAIN  61  59  93 E9G16     29.46F
DETROIT CITY   CLOUDY    62  60  93 S16G23    29.50F
DETROIT        CLOUDY    62  60  93 S17       29.50F
FLINT          LGT RAIN  61  60  97 SE12      29.43F FOG
GROSSE ILE     DRIZZLE   61  59  94 S17G25    29.50F
HILLSDALE      LGT RAIN  57  54  88 S17G28    29.43F
HOWELL         LGT RAIN  61  59  94 S9        29.43F

CITY           SKY/WX    TMP DP  RH WIND       PRES   REMARKS
JACKSON        CLOUDY    60  57  89 SE14G21   29.42F FOG
LAMBERTVILLE   CLOUDY    63  58  86 S10G21    29.51F
LANSING        HVY RAIN  58  57  97 SW9       29.42F FOG
LAPEER         LGT RAIN  62  60  94 SE9G22    29.47F
MASON          LGT RAIN  62  59  91 S12       29.42F
MONROE         CLOUDY    63  58  82 S16G25    29.50F
MT. CLEMENS    LGT RAIN  62  62 100 SE20G30   29.47F FOG
PONTIAC        LGT RAIN  62  62 100 SE20G28   29.44F FOG
PORT HOPE        N/A     61  59  93 SE17G28   29.51F
PORT HURON     LGT RAIN  64  61  88 SE15G22   29.51F
TRI CITIES     RAIN      59  59 100 NE6       29.46F FOG
MIDLAND        HVY RAIN  54  54 100 N10       29.46F
TROY           RAIN      62  61  94 S13G22    29.50F
SAGINAW HB     LGT RAIN  61  59  94 E12       29.44F
$$
MIZ043>046-050>051-056>058-064>065-071>073-077>080-240000-
SOUTHWEST LOWER MICHIGAN

CITY           SKY/WX    TMP DP  RH WIND       PRES   REMARKS
BATTLE CREEK   RAIN      53  52  96 NW14G23   29.49S FOG
BENTON HARBOR  LGT RAIN  54  51  90 NW13G22   29.61R
BIG RAPIDS     LGT SNOW  50  48  92 N8        29.55F
COLDWATER      LGT RAIN  54  54 100 NW18G24   29.45S
FREMONT        RAIN      51  51 100 N10       29.58F
HOLLAND        RAIN      53  50  89 NW9       29.58F
GRAND RAPIDS   RAIN      52  52 100 NW14      29.52S FOG
IONIA          HVY RAIN  52  51  98 NW12G17   29.46F
KALAMAZOO      RAIN      53  49  86 NW17      29.53R FOG
LUDINGTON      RAIN      50  49  97 NW6       29.62S
MARSHALL       RAIN      55  54  97 NW13G22   29.44S
MOUNT PLEASANT HVY RAIN  53  52  95 N9        29.48F
MUSKEGON       RAIN      53  51  93 NW12      29.59F
SOUTH HAVEN    RAIN      55  54  94 N14G25    29.58S
$$
MIZ016>042-240000-
NORTHERN LOWER MICHIGAN

CITY           SKY/WX    TMP DP  RH WIND       PRES   REMARKS
ALPENA         HVY RAIN  53  53 100 N10       29.58F FOG
BEAVER ISLAND  CLOUDY    51  48  90 CALM      29.66F
BELLAIRE       LGT RAIN  50  48  93 N6        29.62F
CADILLAC       RAIN      48  48  99 N7        29.57F
CHARLEVOIX     RAIN      49  48  97 N7        29.66F
FRANKFORT      RAIN      52  51  97 N5        29.63F
GAYLORD        LGT RAIN  46  44  93 VRB6      29.61F FOG
GRAYLING       RAIN      49  47  94 N10       29.58F
HARBOR SPRINGS LGT RAIN  48  47  95 N3        29.63F
HOUGHTON LAKE  RAIN      50  48  93 VRB7      29.55F FOG
MANISTEE       RAIN      50  49  96 NW8       29.62F
OSCODA         HVY RAIN  59  58  97 E6        29.53F
PELLSTON       LGT RAIN  50  48  93 N10       29.63F
ROGERS CITY    HVY RAIN  53  52  97 N10G21    29.60F
TRAVERSE CITY  RAIN      51  48  89 N9        29.60F FOG
$$
MIZ007>008-015-240000-
EASTERN UPPER MICHIGAN

CITY           SKY/WX    TMP DP  RH WIND       PRES   REMARKS
KINROSS        RAIN      50  49  96 N8        29.67F
MACKINAC ISLAN LGT RAIN  50  50 100 N9        29.64F
NEWBERRY       CLOUDY    49  48  97 CALM      29.68F
S. S. MARIE    LGT RAIN  52  49  89 N5        29.67F
MUNISING         N/A     52  45  77 CALM      29.67F
$$
MIZ004>006-011>014-085-240000-
CENTRAL UPPER MICHIGAN

CITY           SKY/WX    TMP DP  RH WIND       PRES   REMARKS
MANISTIQUE     CLOUDY    48  43  81 NW5       29.67F
ESCANABA       CLOUDY    48  47  96 CALM      29.67F
MENOMINEE      CLOUDY    50  47  89 NW3       29.68S
SAWYER-GWINN   CLEAR     48  43  81 CALM      29.68F
$$
MIZ001>003-009>011-084-240000-
WESTERN UPPER MICHIGAN

CITY           SKY/WX    TMP DP  RH WIND       PRES   REMARKS
IRON MOUNTAIN  CLOUDY    47  41  80 CALM      29.66F
HOUGHTON       CLOUDY    53  40  61 NW6       29.66S
COPPER HARBOR    N/A     54  46  74 SW7       29.66F
IRONWOOD       CLOUDY    56  42  59 N3        29.68S
$$

ABBREVIATIONS USED IN REMARKS
   TC - TEMPERATURE IN CELSIUS
  WCI - WIND CHILL INDEX
   HX - HEAT INDEX
  VSB - VISIBILITY




USA.gov is the U.S. government's official web portal to all federal, state and local government web resources and services.